RH
43 42 42 43 48 52 53 48 45 46 44 49 58 56 53 53 52 55 59 62 70 74 68 69 70 65 66 67 63 63 63 61 61 64 65 65 66 66 63 65 66 64 63 62 61 62 62 62 63 64 65 67 69 72 74 77 80 80 80 80 81 84 86 86 87 87 87 88 90 91 93 95 95 96 99 99 98 98 98 96 93 90 90 90 89 89 91
45 44 43 46 49 52 54 48 43 45 45 48 54 54 52 52 50 51 55 62 69 67 61 63 63 61 62 63 60 58 58 57 58 66 72 73 72 70 65 62 61 61 60 59 59 60 60 60 61 62 64 66 68 71 74 76 79 80 80 80 80 82 83 86 89 89 87 88 89 89 91 95 96 96 99 101 98 95 94 92 90 87 86 86 83 82 83
43 43 42 46 49 51 54 51 46 47 48 49 53 55 55 55 54 53 56 66 74 66 58 61 63 60 59 62 62 59 57 56 56 64 73 71 67 65 61 58 58 58 57 55 56 57 57 58 58 60 65 66 67 73 79 82 83 80 79 78 77 78 80 85 89 89 88 88 90 91 91 91 90 89 95 98 93 90 91 89 86 82 79 77 75 74 73
41 40 38 42 44 45 51 57 57 56 55 56 54 55 59 60 58 60 62 67 74 69 60 61 64 61 61 63 62 60 61 62 60 62 66 64 62 61 58 56 55 55 54 54 55 54 53 53 53 55 61 64 66 74 84 87 85 79 74 71 69 68 70 75 80 84 85 83 84 86 85 87 87 86 89 91 86 85 87 83 79 75 71 70 69 70 69
41 40 38 42 43 45 55 63 64 61 59 58 55 56 60 57 55 62 64 61 68 73 70 67 65 62 62 63 58 56 59 61 58 57 58 57 57 57 56 54 52 51 53 54 55 55 52 51 52 55 62 67 70 75 80 80 75 69 67 63 60 58 59 63 69 74 76 75 76 78 80 82 84 81 83 84 80 79 78 72 69 66 65 64 63 66 68
41 41 41 42 45 52 62 65 63 63 62 59 59 62 62 57 56 61 61 58 62 68 70 69 64 59 59 59 55 52 53 55 55 54 53 53 56 56 54 52 52 53 55 56 57 56 53 51 53 59 66 69 70 69 68 66 62 58 57 54 51 53 54 57 60 62 64 64 64 66 70 73 74 73 75 76 72 68 64 61 59 57 55 56 56 60 64
36 40 40 44 57 65 65 64 63 63 61 57 58 61 58 56 59 58 57 62 66 67 69 68 60 55 55 54 52 50 48 50 52 52 52 53 55 54 54 54 56 58 58 58 58 57 54 51 51 57 63 62 61 59 57 55 51 50 51 49 47 49 49 50 53 54 56 58 58 58 60 62 64 64 64 63 60 57 55 54 54 52 51 53 54 57 60
38 40 38 46 64 68 63 65 66 65 66 62 61 64 63 61 61 59 61 69 69 64 65 65 58 55 55 52 51 49 46 46 48 49 52 53 54 55 57 58 60 59 58 58 57 54 53 49 47 51 54 53 51 50 49 48 47 47 50 50 48 48 46 45 46 47 50 53 52 52 51 52 53 55 56 56 55 54 53 54 55 55 55 56 55 57 60
41 40 37 46 63 70 70 73 73 72 76 72 68 70 69 64 62 61 65 75 73 63 60 61 58 56 57 59 57 50 46 46 47 49 51 53 55 58 58 58 58 58 57 56 54 51 50 50 49 50 50 49 47 47 46 46 47 49 51 51 51 50 49 47 47 46 47 49 49 49 48 49 51 52 54 54 55 56 55 54 56 56 57 58 57 59 62
42 40 40 44 57 69 73 75 74 72 73 72 73 76 72 65 64 64 66 74 74 65 60 63 62 58 61 69 66 56 52 50 48 49 51 51 54 56 55 55 56 55 54 51 49 50 51 50 50 49 49 48 46 45 45 45 47 49 50 50 52 53 52 52 51 51 50 50 50 50 50 53 57 57 55 55 57 60 58 55 57 56 55 56 58 61 65
42 44 44 43 54 67 71 72 72 68 66 67 73 80 81 75 69 67 70 75 75 68 64 67 66 62 68 78 72 59 55 52 47 46 47 48 50 51 50 51 52 52 52 49 46 48 48 48 47 46 45 43 40 39 39 39 41 43 45 47 50 53 54 55 55 55 55 55 55 53 53 58 62 60 58 58 58 60 59 55 54 52 50 50 53 56 62
44 46 43 43 57 70 72 70 66 61 62 66 69 78 87 82 71 67 73 79 78 69 64 66 69 67 71 77 71 61 56 52 48 47 46 46 48 48 48 52 52 49 49 46 44 45 46 44 43 43 42 41 40 39 38 38 40 41 42 42 43 45 47 47 48 50 52 54 56 55 54 58 60 59 59 60 59 60 60 54 49 48 49 49 51 52 56
44 48 45 45 61 73 70 66 62 57 60 66 69 79 87 81 69 65 68 78 83 77 70 75 84 85 79 71 64 58 55 53 49 48 47 47 47 48 50 52 49 46 45 44 42 43 43 41 40 41 41 41 42 43 43 43 44 44 42 41 40 39 39 38 40 42 44 47 50 51 51 53 56 57 57 56 56 58 57 52 49 52 54 53 51 50 51
44 48 45 45 61 76 72 64 59 57 63 71 75 79 81 73 66 63 66 76 85 87 87 89 93 95 88 78 70 63 59 57 54 52 52 53 54 55 54 52 48 47 47 45 42 41 40 38 38 39 41 41 40 41 42 42 42 41 40 39 36 34 34 35 37 39 40 42 44 45 45 46 47 49 49 48 51 52 49 48 50 52 54 53 49 46 47
48 44 45 51 65 75 73 67 63 63 72 80 78 74 72 68 66 65 68 74 79 84 92 96 94 93 92 89 87 82 77 72 65 60 59 59 58 57 54 51 49 48 45 41 38 37 36 35 35 36 37 37 36 37 38 38 37 36 37 36 33 33 33 34 35 36 37 39 41 41 42 42 41 41 41 42 44 45 45 46 46 46 46 47 46 44 43
51 47 56 69 74 71 69 73 74 73 76 78 77 76 73 67 63 63 69 77 79 80 87 91 90 91 92 90 89 89 89 82 72 65 64 61 59 57 52 48 46 43 40 38 36 36 36 35 34 33 33 34 35 36 37 36 35 34 35 34 34 34 35 35 36 37 37 38 39 39 39 40 40 39 39 40 40 40 42 42 41 40 39 39 40 39 38
64 65 68 71 70 67 68 74 77 76 76 75 75 78 74 66 61 62 68 77 79 79 84 88 91 92 92 92 90 89 91 89 78 67 62 58 57 57 52 48 45 41 38 37 36 37 38 38 36 35 35 36 38 39 38 36 35 35 35 36 36 36 37 38 39 39 40 40 40 40 41 41 41 40 40 41 40 38 39 39 38 38 37 35 35 35 33
75 73 68 65 68 71 75 77 78 79 80 79 76 75 71 65 62 62 66 74 79 80 83 87 90 91 90 91 91 87 87 87 77 65 58 54 51 48 46 46 46 42 39 38 38 40 43 42 39 39 39 40 41 41 39 37 37 37 37 38 39 39 40 40 40 41 42 41 40 42 44 44 42 40 40 41 41 40 39 38 37 37 36 34 33 33 33
76 73 72 73 77 81 83 82 82 81 79 74 70 69 69 68 66 65 70 77 79 77 74 76 83 88 88 88 86 82 82 84 76 65 59 53 44 39 40 44 45 42 39 40 40 41 43 43 42 43 44 45 48 47 44 42 41 41 41 42 43 43 44 45 45 46 47 47 45 45 46 45 43 42 40 40 41 40 39 38 38 38 37 36 35 35 35
70 71 76 79 81 85 84 81 80 78 73 70 67 67 69 70 70 72 75 76 74 73 73 77 84 86 85 83 81 79 80 79 71 63 59 53 45 42 45 47 44 40 40 42 42 44 47 48 49 51 52 54 57 56 53 52 51 50 51 52 51 51 52 50 49 49 50 51 50 47 46 47 46 44 44 43 41 41 42 44 45 44 42 40 40 40 39
71 76 81 82 84 87 83 76 74 72 69 71 73 74 75 75 75 77 79 78 77 77 77 77 75 72 71 70 70 71 69 64 58 56 56 52 49 49 51 50 46 44 45 47 48 50 52 52 52 54 54 54 54 53 51 52 53 52 52 52 50 48 46 43 41 43 44 45 45 43 43 45 44 44 45 45 42 42 44 45 45 46 47 48 48 48 48
77 84 84 82 87 92 85 75 71 69 68 72 77 79 81 82 81 81 82 81 79 76 73 70 64 59 59 59 56 54 51 48 48 49 47 44 44 46 47 48 50 51 51 52 53 53 52 49 48 47 46 43 42 42 42 43 42 41 41 40 38 38 37 35 35 37 38 37 37 37 38 39 39 39 40 40 40 43 45 44 41 42 46 48 49 50 53
80 79 76 76 83 89 82 70 64 64 66 71 75 77 78 78 77 77 75 75 74 71 68 65 61 57 56 53 47 42 41 44 47 47 44 43 44 46 48 50 53 55 55 54 54 51 46 42 40 39 39 37 36 35 35 36 35 34 34 33 32 32 32 34 37 38 35 35 36 35 35 36 36 35 35 34 37 42 45 46 45 45 46 47 48 50 52
73 70 67 67 70 74 72 64 58 58 61 64 67 68 68 68 67 66 63 64 65 63 59 57 56 56 53 47 44 44 45 49 51 51 51 51 50 51 52 53 54 54 52 50 48 45 41 38 36 36 37 37 36 35 34 35 36 36 36 36 36 35 33 34 37 38 35 36 38 37 36 36 36 35 33 31 33 37 39 42 47 49 50 52 55 55 54
69 74 74 68 63 63 61 56 53 54 57 59 61 62 61 60 59 57 54 54 55 53 51 50 49 48 45 42 43 46 48 50 51 52 53 55 56 56 55 53 52 50 46 43 41 40 39 39 38 37 37 38 40 40 37 38 41 42 42 42 43 46 46 43 42 41 40 41 42 42 41 40 38 37 37 36 37 37 36 37 43 46 47 53 59 59 59
70 74 71 65 61 57 52 50 52 53 54 56 57 58 60 61 60 57 54 53 51 49 47 46 44 42 41 41 43 45 47 50 52 52 52 55 57 56 53 50 46 43 40 40 40 41 41 40 39 40 41 42 44 43 41 42 45 47 47 47 47 50 55 54 50 47 46 47 48 48 46 45 44 43 43 44 44 41 39 40 42 41 42 49 55 55 55
72 68 62 61 63 57 51 53 57 54 53 54 54 54 56 56 55 53 52 52 52 50 47 45 44 44 45 46 48 50 51 53 53 52 54 55 54 51 47 44 40 38 37 38 40 40 40 38 39 42 44 45 46 45 44 47 51 52 52 52 49 50 54 55 53 51 51 51 52 52 51 50 50 49 48 48 47 45 45 46 45 43 42 46 50 50 51
70 63 60 63 64 60 55 56 57 54 53 54 52 50 47 44 42 41 42 45 48 49 47 45 45 45 46 48 50 53 54 53 52 52 52 51 48 45 43 41 40 38 38 38 38 38 38 38 41 45 48 49 49 48 48 51 55 57 57 56 51 49 52 55 55 54 54 55 56 58 58 57 54 52 52 52 50 48 48 49 47 45 45 47 49 49 52
58 55 56 58 58 56 55 55 55 54 52 51 47 44 41 40 39 38 38 39 40 41 42 43 45 46 46 47 50 52 53 53 51 49 47 43 41 41 41 40 39 39 38 38 38 38 39 40 42 46 51 52 51 50 53 55 56 57 59 59 55 53 56 60 59 56 56 59 61 61 59 56 54 53 52 52 50 48 47 48 47 45 45 48 51 51 54
44 46 49 50 49 48 50 50 49 47 44 42 39 36 34 36 38 39 39 40 40 41 43 44 45 46 48 49 50 50 49 47 45 42 40 39 39 39 37 35 35 35 37 40 41 41 41 42 44 48 52 53 51 53 56 57 54 54 57 59 58 59 63 66 64 59 57 59 59 55 52 52 52 52 49 48 47 45 44 45 45 44 44 46 49 52 56
33 37 39 40 40 39 39 39 38 37 36 35 34 33 33 34 36 38 40 41 42 44 44 45 46 47 49 49 50 48 45 43 41 39 39 42 43 40 37 34 34 37 40 43 45 44 43 44 47 51 53 52 52 56 60 58 53 51 54 56 57 59 64 67 65 60 58 57 54 52 50 49 49 50 49 48 48 46 46 46 45 44 45 46 47 51 57
29 31 32 33 32 32 32 32 32 33 33 32 32 33 32 32 35 38 40 41 43 44 44 44 47 49 50 49 48 45 42 40 40 39 41 42 43 42 40 39 40 43 45 47 49 48 46 47 51 54 54 52 53 57 60 59 54 52 53 54 56 59 63 64 60 55 54 55 54 53 51 50 50 51 52 51 49 49 49 49 48 47 48 47 48 53 60
31 33 33 32 32 33 33 32 31 32 32 32 33 32 32 32 35 38 41 43 43 42 42 45 48 49 48 45 42 39 38 38 37 38 39 40 42 45 45 44 45 47 48 50 50 48 48 51 54 55 53 53 56 59 60 58 55 53 54 54 54 56 61 63 59 54 52 52 53 54 53 53 53 53 52 52 52 52 52 51 50 49 50 49 50 54 60
31 32 32 32 32 33 34 33 32 32 33 33 33 32 33 35 37 38 40 41 41 42 44 46 46 45 42 39 37 36 35 35 35 37 39 40 42 45 46 46 47 48 50 51 51 50 51 55 57 57 55 55 57 60 61 58 55 54 56 57 55 55 57 58 58 57 55 54 55 55 54 54 55 54 52 51 50 50 51 51 49 48 47 48 49 51 55
30 30 30 30 30 30 32 32 31 31 32 32 33 34 36 37 38 40 41 40 40 42 43 41 39 37 35 34 33 33 32 32 35 37 39 39 42 45 45 44 44 45 48 51 53 55 56 53 52 55 58 57 57 60 63 62 58 56 57 58 57 55 56 56 55 55 54 53 52 52 50 50 50 49 46 43 41 41 42 43 43 41 40 40 42 43 45
30 29 29 29 29 30 30 30 30 30 31 33 34 36 37 37 37 38 39 38 38 38 37 35 34 33 32 32 31 31 31 34 37 38 39 41 43 44 42 39 40 43 46 49 55 60 58 48 44 51 59 60 60 61 61 61 61 59 57 56 54 52 52 52 50 50 49 47 45 45 44 42 41 40 37 34 32 32 33 36 36 35 34 34 35 35 36
31 30 30 31 32 32 33 32 32 32 33 34 35 35 35 35 34 34 34 34 34 33 32 31 31 31 31 31 30 31 33 36 38 39 40 41 42 40 38 37 37 38 40 45 54 60 55 45 46 54 58 59 64 64 57 56 61 60 55 52 51 48 47 46 44 42 43 41 38 37 35 33 32 32 31 30 30 30 32 35 35 33 31 32 32 33 33
37 37 38 38 36 36 36 35 33 34 34 34 34 33 32 32 31 30 30 31 32 32 31 29 28 30 31 31 31 33 36 38 38 39 40 40 40 39 36 35 35 35 38 46 56 57 50 47 54 60 57 57 64 66 58 55 60 59 52 49 49 46 43 42 40 37 37 36 34 32 30 28 29 29 29 29 31 33 34 35 35 33 31 31 31 31 32
40 41 42 40 37 36 35 33 33 33 34 33 32 32 32 30 29 28 28 29 31 32 30 28 28 29 29 30 30 33 37 39 39 40 39 39 40 40 37 39 44 44 43 50 56 53 47 50 58 59 57 59 65 66 59 56 59 58 51 47 46 43 40 38 37 35 33 33 32 30 29 29 29 30 30 30 31 32 33 33 33 31 29 29 29 30 30
38 40 39 37 36 34 33 32 32 31 31 31 30 30 30 28 26 26 26 29 33 34 30 27 27 27 28 28 29 32 36 40 40 39 38 39 40 39 37 42 51 52 48 52 56 50 45 51 57 55 55 59 63 63 61 59 56 53 49 44 41 39 37 36 35 33 31 30 30 29 29 29 29 30 30 30 29 28 29 30 29 29 29 29 28 29 29
37 38 36 35 33 31 30 31 30 28 27 28 27 27 27 25 25 26 26 27 32 35 31 27 26 26 26 27 28 32 37 40 39 38 37 37 36 33 30 37 51 55 51 52 53 47 43 51 57 54 55 60 59 56 59 60 54 48 45 42 39 38 37 35 34 33 31 29 28 27 26 27 28 28 28 28 27 28 29 29 28 29 30 30 29 29 29
36 36 34 32 31 30 28 28 27 26 27 27 27 27 28 26 25 27 27 26 30 33 30 28 30 31 29 29 30 33 37 38 37 37 38 37 34 30 27 36 51 54 47 47 53 52 50 55 57 55 58 63 59 51 52 55 51 44 41 40 39 38 37 35 34 32 31 30 28 26 26 27 27 26 26 27 27 28 29 29 29 30 30 31 30 29 29
34 34 32 30 30 28 26 25 25 26 27 28 27 29 31 30 28 28 27 27 29 30 28 28 30 32 31 30 30 31 33 35 36 37 37 37 38 36 34 39 50 50 44 48 56 55 51 55 56 53 53 58 55 50 50 50 46 41 40 39 38 38 36 35 34 33 31 30 28 27 28 29 28 27 27 27 27 28 28 29 30 31 31 31 31 29 29
33 32 30 29 28 26 24 23 24 25 27 29 30 30 31 31 30 29 27 27 28 28 27 28 28 29 30 29 28 28 30 31 33 34 33 31 34 37 38 41 47 48 46 49 54 51 51 55 56 51 50 51 50 49 50 49 42 38 39 39 38 37 36 35 34 33 31 30 29 29 30 31 30 28 28 29 29 29 29 30 31 32 31 30 31 31 31
33 31 30 29 28 25 22 22 23 24 25 28 30 31 30 29 29 29 28 28 28 28 28 29 28 28 28 28 27 27 27 27 29 31 28 25 27 34 39 43 47 48 47 48 51 53 55 55 52 49 51 52 48 48 50 46 39 37 39 39 38 38 37 34 33 33 33 31 29 28 29 31 30 29 30 32 32 31 30 31 33 32 30 30 31 32 32
32 31 31 30 26 23 21 22 23 25 26 27 29 30 30 29 29 29 28 28 28 28 29 29 28 27 27 26 26 27 28 27 28 30 29 26 29 35 39 42 47 50 49 49 53 56 55 51 49 51 53 51 47 48 49 44 39 39 40 39 39 39 38 35 35 35 33 30 28 28 30 32 31 30 31 33 33 32 32 32 32 30 30 30 31 32 33
32 31 30 27 24 24 26 27 26 27 27 26 26 27 28 29 29 29 28 28 28 28 28 27 27 27 27 26 25 26 27 26 25 27 29 30 34 38 37 37 42 46 48 51 56 58 54 49 51 54 52 49 48 50 49 44 41 41 41 40 39 39 38 36 36 36 34 31 31 34 36 35 32 31 32 33 32 31 32 32 32 30 29 29 30 32 33
31 28 25 24 25 28 30 30 27 26 26 25 24 24 26 27 28 28 28 28 28 28 27 26 26 27 27 26 26 26 26 24 22 24 27 31 36 43 46 42 41 45 49 53 57 56 51 50 53 55 51 47 49 50 48 45 43 42 41 41 41 40 38 37 37 37 36 33 32 32 33 33 32 32 32 32 32 32 32 32 32 31 31 31 32 34 34
28 25 24 25 26 27 27 26 24 24 24 23 23 24 25 26 27 29 28 27 27 25 24 25 25 25 26 28 28 28 28 26 25 26 31 33 37 45 50 46 42 44 51 57 59 57 52 52 55 55 51 49 50 48 46 45 45 44 43 43 42 40 40 40 38 37 35 34 32 31 32 32 33 34 33 33 33 33 33 33 33 33 35 37 38 37 35
26 25 25 25 25 26 25 24 23 22 22 22 23 25 27 27 26 27 27 26 25 24 23 24 25 24 26 28 28 27 29 32 32 34 37 41 45 50 53 51 46 46 51 58 62 61 56 54 55 53 50 51 53 49 45 45 47 46 45 45 43 41 40 39 36 34 34 33 31 32 33 34 35 37 38 37 35 34 35 36 36 37 40 41 39 37 36
26 25 24 24 25 25 24 23 22 22 22 23 24 26 28 27 25 24 25 25 24 23 23 23 23 23 23 25 26 27 30 35 37 38 41 46 49 52 53 53 52 52 53 57 61 61 58 57 59 57 53 52 53 50 46 46 47 46 45 45 44 42 40 39 37 35 34 32 32 32 34 36 37 38 38 37 36 36 37 39 39 40 41 42 40 40 41
26 24 23 24 26 26 26 26 26 26 26 26 26 27 27 25 24 24 26 26 25 24 23 23 23 24 24 24 26 30 34 37 40 42 45 48 50 51 53 55 57 58 57 57 59 58 57 59 62 61 56 52 51 50 47 46 45 45 45 45 44 42 42 41 38 36 34 34 34 34 34 35 37 37 36 37 38 39 39 40 40 41 43 44 45 46 47
Wind_Speed
2 3 4 3 3 2 4 7 8 8 6 4 3 3 5 5 3 3 8 12 12 10 11 11 10 10 11 11 11 11 11 11 12 12 12 12 12 12 13 13 13 13 13 12 13 15 15 14 14 14 13 13 13 13 13 13 12 11 12 13 13 12 12 11 10 9 8 8 7 7 7 6 6 5 5 5 4 4 3 2 2 3 3 3 3 3 3
1 0 2 2 2 1 2 5 8 8 7 6 5 4 5 5 3 6 11 13 12 10 10 11 11 10 11 11 10 11 12 12 13 13 13 12 12 13 13 13 13 13 13 13 14 15 14 13 13 13 12 12 12 12 12 13 12 12 13 14 13 12 12 12 11 10 10 9 9 9 9 8 7 6 6 6 6 6 6 5 4 4 4 4 3 3 3
2 2 1 2 2 3 2 4 8 9 7 7 6 5 5 4 5 9 12 12 11 9 11 12 11 10 10 10 10 11 11 12 13 14 14 12 12 13 13 13 13 12 12 13 14 14 13 13 12 12 12 11 11 13 13 12 13 13 13 12 11 11 11 11 11 11 10 10 9 9 9 8 8 7 7 6 6 6 6 6 5 5 5 5 5 5 5
0 2 1 2 3 4 2 5 9 10 7 6 5 5 5 3 6 11 10 8 8 8 11 12 11 11 11 11 10 10 10 11 12 13 13 13 12 13 13 13 13 12 12 12 13 13 13 12 11 11 11 10 11 13 13 13 12 12 11 11 10 9 9 9 9 9 9 9 9 9 8 8 8 7 7 6 6 6 6 7 7 6 6 6 6 6 6
2 1 2 3 4 3 1 5 8 9 7 6 5 5 6 3 6 7 5 5 8 10 12 13 13 12 12 11 9 9 11 11 11 12 12 13 13 12 12 12 12 11 12 12 13 13 13 12 11 11 11 12 13 13 13 12 10 10 11 11 11 10 9 9 9 8 8 7 8 8 8 8 7 6 7 7 7 7 7 7 7 7 7 7 7 6 6
3 1 3 5 5 1 2 3 6 7 6 7 6 7 6 3 3 1 1 6 11 12 12 12 13 13 12 10 9 9 9 9 10 11 11 12 12 12 12 11 11 11 12 13 13 13 13 12 12 12 13 13 13 12 11 10 9 10 11 12 12 12 12 11 11 10 9 9 8 8 8 8 8 8 8 8 7 7 7 7 8 8 8 8 8 7 7
4 3 4 6 3 1 4 4 6 5 4 6 6 7 7 5 4 2 5 10 12 11 10 10 11 12 12 11 10 9 9 8 9 10 10 11 12 12 11 11 11 12 13 13 13 13 12 11 11 12 12 12 11 10 10 10 11 11 12 13 13 13 12 12 12 11 11 10 10 10 9 9 9 9 9 8 8 8 8 8 8 8 9 9 9 9 8
3 3 4 3 2 4 6 6 7 6 4 5 4 6 8 7 5 2 7 11 9 10 12 11 11 13 13 11 10 10 10 9 10 10 10 11 12 11 11 12 12 13 13 13 12 11 11 11 11 12 11 11 11 11 11 11 11 11 12 12 12 12 12 12 11 11 11 11 10 10 10 10 10 10 9 9 8 8 8 8 8 8 8 8 8 8 8
3 4 3 1 5 5 4 5 7 6 5 6 5 3 6 8 7 3 8 11 8 9 13 13 13 15 13 10 9 9 10 10 10 11 12 13 14 13 13 14 14 14 13 13 12 12 12 12 12 11 11 11 11 11 11 11 11 10 10 10 11 11 11 11 11 10 10 10 10 10 10 10 10 9 9 8 8 7 7 7 6 6 5 5 6 6 6
2 4 3 2 3 3 3 5 6 6 4 5 6 3 4 8 9 4 5 11 11 11 13 14 14 14 11 9 8 8 10 11 11 13 14 15 15 15 15 15 14 14 13 13 13 13 13 13 12 11 11 11 11 11 11 10 10 10 9 9 9 9 9 10 10 10 10 10 10 9 9 9 8 8 7 7 6 5 5 5 4 4 4 3 3 3 3
2 4 4 2 1 2 4 7 7 6 4 3 3 1 2 7 10 7 2 6 11 11 11 14 14 11 9 9 8 8 9 11 11 12 13 15 16 16 15 15 14 14 13 13 14 14 13 13 12 11 11 11 11 11 11 11 11 11 10 10 9 9 9 8 9 9 9 9 8 8 8 7 6 6 5 5 4 4 4 3 3 3 4 4 3 3 3
1 3 4 1 3 4 5 7 7 6 4 3 3 2 0 6 9 7 5 3 9 11 11 12 10 6 7 9 9 9 10 11 12 13 13 14 15 15 15 15 14 13 13 13 13 13 12 12 11 11 11 11 12 11 11 11 11 11 10 10 9 9 8 8 8 8 8 8 7 7 6 6 5 4 4 3 3 3 4 4 4 4 4 5 4 5 4
1 3 3 1 4 4 5 8 8 7 5 4 3 1 1 6 8 6 4 1 4 6 7 7 4 3 8 11 11 11 11 11 12 14 15 15 15 15 15 13 12 12 12 12 12 12 11 11 11 11 11 11 12 11 11 11 10 10 9 8 8 8 8 8 8 8 7 7 6 5 5 4 4 3 3 3 3 4 4 4 4 5 5 6 6 6 5
1 2 2 1 3 3 7 10 8 6 4 2 0 2 2 5 7 4 1 3 5 4 3 5 7 8 11 12 11 11 11 11 11 13 15 16 15 15 13 11 11 12 12 12 12 11 11 11 11 11 11 11 11 11 10 10 9 9 8 8 8 8 8 8 8 7 7 6 6 5 5 5 4 4 4 4 4 5 5 5 6 6 6 6 7 7 7
2 3 2 2 2 4 9 9 5 3 4 2 2 3 3 4 5 4 5 6 8 9 10 10 10 11 13 12 10 10 11 11 13 14 16 16 14 13 12 11 11 11 11 12 12 12 11 11 11 11 11 11 11 11 11 10 9 9 8 8 8 8 8 8 8 7 7 6 5 5 5 5 6 6 5 6 6 6 7 7 7 8 7 7 7 7 7
3 2 1 1 1 4 8 7 4 5 6 5 4 3 3 4 4 4 6 8 10 14 15 13 12 13 14 12 10 10 10 11 12 13 14 14 13 11 11 10 10 10 11 12 12 12 12 12 12 12 12 12 12 11 11 10 9 9 9 8 7 7 6 6 7 7 6 6 5 5 5 6 6 6 6 6 7 7 7 8 8 8 8 8 8 8 7
3 3 4 4 3 5 6 5 5 6 6 5 4 3 3 4 4 5 7 10 13 16 17 15 13 13 13 11 11 11 10 9 11 12 13 14 14 12 12 12 11 11 12 12 12 13 12 12 12 12 12 11 11 10 9 8 8 8 8 7 7 6 6 6 6 6 6 6 5 5 6 6 6 6 6 7 7 7 7 8 7 8 8 8 8 8 8
3 3 4 5 5 6 6 5 4 5 5 4 4 5 5 5 6 7 10 13 14 14 15 15 13 12 13 12 12 12 10 9 11 13 15 15 14 14 14 14 12 11 12 12 12 12 11 11 11 11 11 10 10 9 8 7 7 7 6 6 6 5 6 6 6 6 6 6 7 7 6 6 6 7 7 7 7 8 8 7 7 8 9 9 10 10 10
2 2 5 7 6 6 6 5 6 7 7 7 7 7 8 9 10 12 14 14 13 13 15 17 15 13 13 14 14 12 9 7 7 9 11 12 13 14 13 12 11 11 11 11 11 10 10 10 10 10 10 10 9 8 8 7 7 6 5 6 6 6 6 7 7 7 7 8 9 8 7 7 8 8 8 8 9 9 10 10 10 11 11 11 12 13 13
1 4 7 7 7 8 8 6 7 8 8 10 11 11 12 13 14 15 14 13 11 12 13 14 13 13 13 13 14 12 9 7 6 6 8 10 11 11 10 9 10 10 10 10 10 10 10 10 10 10 10 10 10 10 9 9 8 7 7 7 7 7 8 8 8 9 8 8 9 9 8 8 9 9 9 9 10 10 11 11 11 11 12 13 14 14 15
3 5 6 5 6 9 10 9 9 9 9 12 13 13 14 15 15 14 12 10 10 11 11 12 13 14 14 14 14 12 8 7 7 7 9 10 9 9 9 9 9 9 9 10 11 11 11 10 11 12 12 12 13 13 12 12 11 11 9 9 9 9 9 9 10 10 9 8 9 10 9 9 9 9 9 9 9 9 9 9 10 11 11 11 12 13 13
3 4 4 4 5 6 8 9 11 11 11 12 13 13 13 12 12 12 11 11 11 11 12 12 13 13 13 14 14 12 11 11 11 11 11 11 10 9 9 9 10 10 11 11 12 12 11 11 12 13 13 13 14 14 14 14 14 13 12 10 10 10 10 11 12 12 11 10 11 12 11 11 11 11 11 11 10 8 7 10 13 14 11 10 11 13 12
6 8 8 7 7 7 7 9 12 12 11 12 12 13 12 12 11 12 11 11 10 10 11 13 13 12 12 13 14 13 13 13 12 11 11 11 10 9 9 9 11 12 12 13 13 13 12 12 13 13 13 13 14 14 14 14 14 14 13 12 11 11 12 12 13 13 12 12 13 13 13 13 13 13 13 13 11 9 10 15 16 14 13 12 12 14 15
11 10 9 9 9 9 10 11 13 13 12 12 12 13 12 12 12 12 12 12 12 11 11 13 14 14 13 14 14 14 13 12 12 11 10 10 9 9 10 11 13 13 13 13 13 13 12 12 13 13 13 13 14 14 14 14 14 14 14 13 12 12 14 14 13 12 12 13 13 13 13 13 14 14 14 13 12 11 13 15 14 13 13 11 12 16 19
10 8 7 8 10 12 11 11 12 12 12 12 12 12 12 12 12 13 13 13 13 13 13 13 14 15 15 15 15 13 12 12 11 11 11 11 11 12 12 13 13 13 13 13 13 13 12 12 12 12 13 14 14 14 15 15 14 14 14 13 11 11 14 15 14 12 12 12 12 13 13 14 14 13 13 13 13 13 14 12 11 12 11 10 13 19 19
9 7 8 9 11 11 11 11 11 11 12 13 12 11 12 13 12 13 13 13 14 15 15 15 15 15 15 15 14 13 12 12 11 11 12 12 13 13 14 14 14 14 14 14 13 12 12 12 12 13 14 14 15 15 15 15 14 13 13 12 10 11 13 15 13 12 12 12 12 13 13 13 13 13 12 12 12 13 13 12 11 12 10 10 15 20 20
5 4 7 11 11 10 10 10 10 10 12 14 14 13 14 14 14 15 15 15 15 15 15 15 15 14 14 13 13 13 13 12 12 12 13 14 14 14 15 15 15 15 14 14 12 11 11 12 13 14 14 14 14 14 14 13 13 12 12 12 11 11 13 14 12 11 12 12 13 13 13 13 13 12 12 12 12 12 12 12 12 12 11 12 16 20 21
5 5 5 8 9 10 10 10 10 11 12 13 13 14 15 16 16 16 15 14 14 14 14 14 14 13 12 12 12 12 12 13 13 14 14 15 15 16 16 15 15 14 13 13 12 11 11 12 13 13 14 13 14 14 13 12 11 11 11 12 13 13 13 13 12 12 12 13 13 14 13 13 13 13 12 13 12 12 12 13 12 12 14 15 17 19 20
7 7 7 7 9 10 10 9 10 11 11 11 13 14 15 15 13 12 12 13 13 13 12 12 11 11 10 10 11 12 13 14 15 16 16 16 16 16 15 15 14 13 13 12 12 11 12 12 12 13 13 13 13 13 12 11 11 11 11 13 15 15 14 14 13 12 12 13 13 14 14 14 14 14 14 14 14 13 14 14 14 14 15 17 18 19 20
9 8 7 7 8 9 10 10 10 10 11 12 13 14 14 14 12 10 10 11 11 11 10 10 10 10 10 11 11 13 14 16 16 16 16 16 14 13 12 11 11 11 12 11 11 11 11 12 13 13 13 13 12 12 11 10 10 11 11 12 15 16 15 14 14 13 13 13 14 14 15 15 15 15 15 15 15 14 15 15 15 15 16 17 20 21 22
12 11 11 11 10 11 12 11 11 11 11 11 11 12 12 12 11 10 9 8 9 9 9 10 11 11 11 13 14 15 16 17 16 16 15 14 12 10 9 10 10 11 11 11 11 11 11 12 12 12 11 11 11 12 12 11 11 11 11 11 13 15 15 14 13 13 14 14 15 15 15 15 15 15 15 15 15 15 15 15 15 16 16 17 20 22 22
14 13 13 12 11 12 12 11 10 11 10 10 10 10 10 10 10 9 8 7 8 9 10 10 11 12 13 14 15 16 17 17 16 15 14 13 12 11 11 11 12 11 10 10 10 10 10 11 11 10 10 10 11 12 12 11 11 11 10 10 10 12 13 13 12 13 14 14 15 15 15 14 14 15 15 15 15 15 15 15 15 16 16 16 18 20 22
13 12 11 11 11 11 11 10 10 10 10 9 8 8 8 9 9 9 8 8 9 10 10 11 12 13 13 15 15 16 16 16 15 14 13 12 11 11 10 10 10 10 10 10 9 9 10 10 9 9 9 10 10 11 11 11 10 10 10 10 9 9 11 12 12 12 13 13 14 14 14 14 14 14 14 14 14 14 15 15 15 15 16 16 16 18 21
11 10 11 11 10 11 11 10 9 9 8 8 7 7 8 8 9 9 10 10 10 11 11 12 13 13 13 14 15 15 14 13 12 11 11 10 10 9 9 9 9 9 9 9 9 9 9 9 8 7 8 9 9 10 10 10 9 9 9 10 9 9 10 10 10 11 11 12 12 13 13 13 13 13 13 13 13 13 13 14 14 14 14 15 14 15 19
11 12 12 11 11 12 12 10 9 8 8 7 7 7 8 10 11 11 11 12 12 12 12 12 13 13 13 13 13 12 12 11 11 11 10 9 9 8 7 7 8 8 9 9 9 9 9 8 7 7 7 8 9 9 9 9 9 9 9 9 9 9 9 9 10 10 11 11 11 11 12 12 12 12 12 12 12 13 13 13 14 14 14 14 15 14 16
10 11 10 9 10 12 11 10 9 9 9 9 10 10 11 12 13 13 13 12 12 13 12 12 12 12 12 11 11 10 11 11 11 10 9 8 7 6 5 5 5 6 7 8 8 7 7 8 9 8 7 7 8 9 9 8 7 7 8 8 8 8 8 9 9 9 10 10 10 10 10 10 10 11 12 12 13 13 13 13 13 13 14 14 15 15 15
8 8 8 8 10 10 9 8 9 11 12 12 13 14 14 14 13 13 13 12 12 12 12 12 11 11 10 10 10 10 10 10 9 9 8 7 6 5 4 3 3 3 5 6 7 6 5 6 9 9 6 5 6 8 9 9 7 6 7 7 7 8 8 8 9 9 9 9 9 9 9 9 10 11 11 12 13 13 13 13 13 13 13 13 14 14 15
7 7 8 10 11 11 10 10 11 13 15 15 14 14 14 13 12 12 12 12 12 11 11 10 10 10 10 10 10 9 9 8 8 8 7 6 5 3 2 2 3 4 5 5 5 4 4 6 7 6 4 4 5 6 8 9 7 6 6 6 7 7 7 7 7 8 8 9 9 9 10 10 10 10 11 11 11 12 12 12 12 12 12 13 13 14 14
8 9 10 11 12 13 13 13 13 14 16 16 14 13 13 12 12 12 12 12 11 10 10 10 10 10 10 9 9 8 8 7 7 7 6 5 3 2 2 4 4 5 5 5 4 3 4 5 4 3 3 4 4 5 7 8 7 5 5 5 5 6 6 6 6 7 7 8 8 8 9 9 10 10 10 10 10 10 11 11 11 12 12 12 13 13 14
9 11 13 14 14 15 15 14 13 13 14 14 14 13 12 12 13 13 12 12 10 9 9 10 9 9 8 8 7 7 7 7 7 6 6 5 4 3 2 4 5 4 4 5 3 2 4 4 3 2 3 4 3 4 5 6 6 4 4 4 5 5 5 5 6 6 7 7 7 7 8 8 9 9 9 9 10 10 10 10 11 11 11 12 12 12 13
12 14 15 15 15 15 14 13 13 13 12 13 13 13 12 12 12 12 12 12 10 8 8 8 7 7 7 7 6 6 7 7 7 6 5 4 4 4 3 3 7 5 3 4 3 1 3 4 2 1 2 3 3 3 3 4 4 3 3 4 4 4 4 5 5 6 6 7 7 7 7 7 8 8 8 9 9 10 10 10 10 11 11 11 12 12 12
15 17 17 16 15 14 14 13 13 13 12 12 13 13 12 12 12 12 11 11 10 9 8 7 5 4 4 5 5 5 6 7 7 7 6 5 3 6 6 3 7 6 4 3 4 1 1 2 1 1 2 2 3 4 4 2 2 3 2 3 3 3 3 4 4 5 6 6 6 7 7 7 7 8 9 8 9 9 10 10 10 10 11 11 11 11 12
18 18 17 15 14 14 14 13 13 13 13 13 13 13 12 11 11 11 10 10 10 9 8 7 5 4 4 4 5 6 6 7 7 7 6 5 3 4 4 2 3 5 5 4 4 3 2 2 1 1 0 0 1 3 4 2 2 2 2 2 2 2 2 3 4 4 5 6 6 6 7 7 7 8 8 9 9 9 9 10 10 10 10 11 11 11 11
18 17 15 14 14 14 13 13 13 13 13 13 13 12 11 10 10 10 10 10 9 8 7 7 6 5 5 5 5 5 5 5 6 7 6 5 4 4 4 3 4 7 6 5 4 4 2 2 2 2 1 1 2 3 2 1 2 1 1 1 1 1 2 2 3 4 5 5 5 5 6 6 7 7 8 8 8 8 9 10 10 9 10 10 10 11 11
17 16 15 15 15 13 12 12 13 13 13 13 13 12 11 10 9 9 9 9 8 8 7 6 6 5 5 5 5 4 3 3 4 5 5 6 5 1 3 4 6 8 8 7 5 4 3 3 3 3 1 1 2 2 1 1 2 1 1 1 0 0 1 2 3 3 4 5 5 5 5 6 6 6 7 8 7 8 9 9 9 9 9 10 10 10 11
17 15 15 16 15 13 12 12 12 12 13 13 13 12 11 10 10 9 9 9 8 7 7 6 6 6 5 5 4 4 4 4 4 4 5 5 5 3 1 3 6 8 9 7 5 5 5 5 4 3 2 2 3 1 1 2 2 1 2 2 1 1 1 1 2 3 3 4 4 5 5 5 6 6 6 7 7 7 8 8 8 8 9 10 10 10 11
16 16 15 15 14 12 11 11 11 11 13 13 12 12 12 11 10 9 9 8 8 7 7 7 6 6 5 4 4 4 4 4 5 5 4 4 4 5 6 8 8 8 9 8 7 7 7 5 4 3 3 3 3 2 3 3 2 2 2 2 2 2 2 2 2 3 3 3 4 4 4 5 5 6 6 7 7 7 7 8 8 8 9 10 10 10 11
17 16 16 15 14 13 12 11 11 11 12 12 11 11 12 12 11 9 8 8 8 8 8 7 6 6 5 5 5 4 3 4 6 4 2 3 4 4 5 6 8 8 9 10 10 9 8 6 4 4 4 3 3 4 4 3 3 3 3 3 3 3 2 2 2 3 4 4 4 4 4 5 5 6 6 7 7 7 8 8 8 8 9 11 10 10 11
17 17 15 15 14 14 13 12 11 11 11 12 11 10 10 11 10 9 8 9 9 9 8 8 7 6 6 6 6 5 4 4 5 4 3 3 4 4 4 6 8 8 8 9 8 9 8 6 5 5 5 4 4 5 4 3 3 4 4 4 4 3 3 3 4 5 5 5 5 5 5 5 5 6 7 7 7 7 8 8 8 9 11 11 10 10 11
17 16 15 15 14 14 13 12 11 10 10 10 10 9 10 10 10 9 9 9 9 9 8 8 8 6 6 6 6 5 5 5 5 5 5 4 3 3 4 5 7 8 9 9 8 8 8 8 7 6 6 6 6 5 4 3 4 4 4 4 4 4 4 5 6 6 5 5 5 5 6 6 6 7 7 7 7 8 8 8 8 10 11 11 10 10 11
17 16 15 15 14 14 13 11 9 9 9 9 9 9 10 10 9 8 8 9 9 9 9 8 8 7 6 5 5 5 5 5 5 5 4 3 2 3 4 5 7 9 10 10 8 8 8 8 9 9 8 7 7 6 5 4 5 5 5 5 5 4 4 5 5 5 5 5 6 6 7 7 7 7 8 8 8 8 9 9 9 10 10 10 10 11 12
16 16 15 14 13 12 12 10 8 7 8 9 8 9 10 10 8 8 9 10 10 9 9 8 7 7 6 5 4 4 4 4 4 3 3 2 2 3 4 5 6 9 11 10 9 8 8 9 10 10 9 7 6 6 6 6 6 6 6 6 6 5 5 5 5 5 5 6 7 7 7 7 7 8 8 8 8 9 9 9 10 10 10 11 11 12 12
Wind_Direction
344 343 343 341 313 339 1 356 10 18 11 18 34 30 26 12 6 101 132 131 123 129 134 126 126 125 116 112 111 111 115 116 117 119 118 116 112 108 106 104 101 97 93 90 88 85 84 84 83 84 85 86 88 90 91 91 88 91 95 95 93 93 92 90 89 90 92 94 93 91 90 89 88 87 82 79 82 81 79 89 85 63 51 51 52 47 46
265 348 339 333 304 293 355 5 13 20 29 46 57 54 44 33 58 125 139 129 120 127 130 123 125 124 116 116 117 118 121 121 119 118 116 115 113 110 108 106 101 95 92 89 85 82 80 79 80 79 78 80 83 82 82 83 86 90 90 90 89 88 88 88 88 90 90 89 89 87 87 86 88 92 86 79 83 84 83 83 79 67 56 51 48 49 46
212 140 265 247 259 282 298 23 20 14 27 49 54 51 40 39 97 129 136 126 121 131 130 125 127 126 122 123 123 120 119 120 121 119 118 118 116 115 112 107 101 95 91 88 83 81 77 76 79 81 80 83 84 81 78 76 79 84 85 85 84 81 82 84 86 87 85 82 80 79 79 81 85 90 90 85 83 84 82 80 73 66 62 57 50 46 43
298 111 286 267 260 277 325 30 12 3 14 30 38 46 26 26 121 136 143 140 135 139 133 130 132 131 128 126 127 128 126 126 125 121 122 123 119 116 112 105 100 95 88 82 77 75 75 74 77 79 82 85 84 82 84 84 81 79 77 75 74 74 76 79 82 83 79 76 75 74 74 78 80 85 88 85 82 82 83 83 78 69 62 55 48 44 44
309 73 343 299 262 245 82 31 357 350 2 12 27 49 37 52 130 143 159 146 138 143 140 138 139 136 133 132 133 132 130 130 129 122 121 121 115 111 108 103 99 94 85 78 73 71 71 71 71 74 77 81 83 84 87 90 87 80 75 72 72 73 74 74 76 79 77 75 75 74 74 75 75 79 86 86 84 84 85 81 74 65 59 56 52 50 49
290 339 315 272 251 220 91 39 358 354 3 6 21 45 50 71 100 84 104 121 134 147 144 139 141 137 131 130 128 126 127 129 128 122 118 115 110 107 106 102 95 89 83 79 74 71 70 71 75 80 83 85 89 91 91 89 85 81 78 76 74 72 70 71 72 74 76 77 76 76 77 78 79 81 86 88 86 85 82 77 71 67 63 60 56 54 54
290 308 283 265 256 89 98 72 30 17 13 9 31 59 65 68 54 47 125 129 138 147 140 137 139 130 124 125 121 119 121 121 121 119 116 114 111 106 102 97 93 92 88 82 76 72 72 76 82 87 90 90 89 90 90 88 86 83 80 76 73 71 71 72 74 74 77 79 79 80 81 81 83 83 84 84 82 79 76 71 69 67 64 62 59 55 53
289 271 268 276 89 108 114 81 38 21 7 358 29 72 63 44 26 59 127 134 146 148 141 139 134 123 119 118 113 111 114 114 117 117 115 111 107 103 104 104 99 94 89 82 77 74 74 78 83 87 89 90 90 90 90 89 86 83 79 75 73 73 73 74 76 78 81 81 81 82 82 82 82 81 81 80 76 73 71 66 65 62 59 58 54 51 48
285 277 276 132 114 112 102 66 36 24 13 351 349 45 60 33 8 30 129 143 160 152 138 135 131 128 125 116 109 109 109 109 110 109 107 108 107 107 108 106 101 95 90 85 79 75 74 77 82 86 87 87 88 88 86 86 84 82 80 77 74 72 71 72 72 74 77 79 79 79 78 78 76 74 72 69 63 59 58 55 52 49 47 48 44 42 40
273 283 276 215 163 123 56 38 25 14 13 356 340 343 51 28 3 348 148 154 159 153 145 143 141 139 133 123 119 115 108 108 111 111 111 112 112 112 111 108 104 98 92 87 82 78 77 77 80 85 88 89 89 87 85 85 85 82 80 78 75 72 70 68 67 66 68 71 71 71 70 67 65 62 59 55 46 37 35 36 31 20 16 19 16 16 20
249 272 275 275 167 95 35 12 358 348 352 360 337 317 35 11 355 334 288 164 156 156 156 156 159 158 145 135 133 123 117 119 118 117 117 115 114 114 112 108 104 99 93 87 82 78 77 78 80 84 88 89 89 87 86 85 83 79 75 73 73 72 68 65 65 63 61 61 61 63 62 58 52 49 44 39 29 14 359 355 360 353 345 341 336 331 319
240 270 268 332 82 78 27 357 342 334 326 298 270 210 34 348 345 336 311 202 164 169 171 166 172 176 145 136 133 122 118 121 120 117 117 116 115 113 108 104 103 101 96 88 80 76 75 80 84 86 87 86 83 81 80 79 76 73 70 68 69 69 67 64 63 59 57 55 51 49 52 48 41 35 27 15 4 348 331 329 337 336 329 325 318 311 303
229 262 259 139 94 70 12 349 337 326 302 262 247 164 42 335 339 338 313 281 144 174 184 166 147 74 89 108 117 112 107 110 113 113 110 107 106 105 104 106 105 99 91 83 78 76 75 79 83 84 85 85 83 79 76 72 68 65 62 59 58 57 56 54 50 47 44 40 33 29 29 23 12 5 357 344 331 321 315 318 320 313 306 304 303 304 302
271 257 261 182 116 69 354 335 331 326 301 250 71 51 32 346 345 353 28 77 75 69 78 95 95 84 79 82 88 90 87 86 90 94 95 93 92 96 100 102 99 95 90 84 80 77 75 77 79 81 82 81 79 76 70 63 59 56 53 51 49 47 44 42 38 33 28 22 13 7 3 354 344 337 332 324 313 307 306 306 303 300 298 296 300 303 301
288 245 257 256 155 49 358 338 340 16 7 4 10 13 31 21 9 26 59 76 85 82 73 72 80 82 75 70 68 67 68 68 68 72 79 83 87 98 106 104 99 98 95 89 82 76 73 73 74 75 76 75 72 69 63 55 51 48 44 42 44 43 39 35 29 21 15 9 360 351 345 338 332 327 322 318 310 302 301 301 299 300 300 297 297 300 299
306 279 30 10 356 20 5 347 343 6 1 344 329 344 31 42 42 63 73 78 89 94 93 86 80 80 77 72 66 59 55 57 56 56 64 73 79 86 95 98 98 97 94 88 82 76 71 67 68 69 69 68 65 61 56 50 48 48 45 42 42 39 32 26 19 10 4 0 357 351 343 335 327 321 320 317 311 304 302 301 299 301 301 298 296 299 301
13 11 35 38 24 15 8 351 334 338 342 338 342 21 61 52 54 80 99 103 101 101 102 97 88 86 85 78 69 63 55 49 48 50 60 71 74 71 72 78 83 86 87 84 79 74 67 62 62 62 61 61 57 50 44 40 37 39 40 38 35 28 19 11 3 358 352 350 350 345 337 330 322 319 319 315 313 313 309 303 301 302 303 302 300 300 302
71 56 36 30 28 20 11 9 6 1 5 20 48 75 79 72 81 98 110 113 111 108 106 102 95 93 92 84 76 70 62 51 50 54 60 66 71 77 81 83 83 84 85 81 74 70 65 61 61 58 53 49 44 35 31 28 23 21 22 19 12 4 358 348 341 339 336 333 332 323 313 311 312 313 312 311 313 315 310 306 308 310 309 310 309 307 307
147 82 53 41 34 26 18 31 55 54 55 67 81 90 90 91 98 106 110 112 109 102 101 104 104 101 95 90 88 89 91 90 80 74 73 75 82 90 93 92 91 91 88 82 76 71 66 61 57 51 45 39 32 25 21 15 7 3 1 355 347 345 344 339 336 332 328 327 326 318 309 309 310 308 310 312 311 309 308 310 312 312 312 312 310 308 308
103 76 77 73 60 48 42 54 70 71 76 84 86 91 98 102 104 106 108 109 108 106 106 108 111 111 109 111 118 125 131 134 128 119 111 105 104 102 96 91 94 94 88 82 76 69 64 59 55 52 47 40 34 29 23 16 9 6 3 359 359 0 359 359 356 347 339 336 332 326 324 324 319 318 323 325 323 322 325 328 326 321 318 314 313 315 315
103 90 92 95 77 58 52 64 80 83 88 93 92 93 97 101 103 100 93 85 89 104 114 116 116 119 123 129 135 138 138 134 133 130 124 119 114 107 97 92 94 92 86 82 77 71 66 64 64 62 56 49 43 39 35 30 27 25 24 23 23 21 17 15 8 356 348 348 344 337 335 335 332 331 333 334 335 337 344 353 353 347 339 330 330 334 330
129 90 77 88 96 77 62 73 87 91 94 97 96 94 95 97 98 98 92 85 83 90 102 110 115 118 122 128 132 132 130 130 130 127 124 120 115 110 105 99 91 86 83 83 82 76 71 68 66 63 57 51 46 42 38 34 32 29 27 24 21 18 12 8 3 354 345 344 343 339 336 335 333 332 330 330 334 340 348 352 353 355 357 357 359 1 353
97 96 96 100 107 103 91 93 97 97 97 97 97 98 102 104 107 109 110 107 100 93 96 104 109 113 120 127 129 125 120 118 115 113 113 112 108 105 103 96 90 87 85 83 80 76 72 69 66 62 56 49 43 39 34 31 28 25 20 15 11 8 4 358 354 347 340 340 340 337 336 336 335 332 330 329 333 342 347 346 348 355 0 4 12 15 10
104 107 107 108 108 106 103 102 100 98 98 99 100 103 107 109 112 115 116 115 114 112 110 112 116 119 122 125 123 117 110 107 103 100 98 97 96 96 96 95 94 92 87 83 81 78 75 72 66 60 53 44 37 32 28 24 21 19 16 11 7 6 2 354 348 343 341 341 341 340 341 341 338 335 333 330 330 336 339 340 346 355 360 8 18 16 12
110 107 100 101 104 105 104 100 95 93 94 94 96 101 103 105 108 110 110 112 114 116 116 118 122 125 123 122 118 112 106 103 102 100 97 92 92 95 97 97 98 96 92 89 86 81 75 69 62 56 48 39 31 26 22 20 18 16 13 8 5 6 2 352 345 344 345 345 346 346 345 343 340 339 338 337 336 335 334 337 345 352 358 18 22 13 10
92 102 109 107 104 106 110 106 98 95 95 95 95 97 98 99 100 101 103 107 111 114 117 119 122 123 121 118 116 113 108 106 106 106 103 99 97 98 99 99 99 98 94 89 83 77 71 65 58 51 43 34 26 21 18 16 15 14 11 7 6 8 3 353 347 348 351 350 351 351 348 345 344 342 343 344 341 337 337 343 349 348 353 10 12 6 3
53 81 115 113 103 96 98 100 99 100 98 98 100 103 104 105 105 103 102 100 100 104 109 113 116 118 116 114 114 113 112 111 108 104 102 100 100 101 102 102 101 97 92 86 79 72 66 58 52 46 38 29 22 18 16 14 15 15 14 13 12 8 3 359 356 357 358 359 359 357 353 351 352 351 351 352 350 348 351 356 355 354 1 8 7 4 3
42 40 76 98 98 92 91 94 98 101 100 102 108 112 112 111 109 106 105 103 101 103 107 110 114 117 117 117 116 113 111 109 106 104 102 102 104 105 104 101 97 91 85 78 71 65 58 51 47 42 33 25 18 15 14 16 19 21 22 22 18 12 9 8 8 8 9 11 10 7 3 2 4 6 7 6 5 7 13 15 12 14 20 18 10 8 10
77 67 65 74 89 98 102 101 100 100 103 111 116 117 114 110 105 104 107 108 110 109 109 109 110 109 109 111 112 111 109 106 104 104 105 105 106 105 102 98 93 86 79 72 64 58 52 45 43 38 29 21 17 16 17 22 26 29 33 32 26 21 18 16 15 18 22 23 22 21 21 22 24 25 25 25 25 26 28 28 25 25 28 23 15 12 12
99 95 94 100 109 113 111 107 106 107 110 114 116 115 113 109 104 102 104 106 107 107 106 105 104 100 98 99 102 105 107 107 106 107 108 106 105 104 101 99 92 82 73 64 56 52 47 42 39 34 27 21 19 19 21 27 30 35 41 41 37 35 34 28 24 26 31 32 31 31 33 35 35 34 32 32 31 31 31 30 28 26 27 25 21 18 16
117 114 115 120 122 117 111 109 109 108 109 111 112 113 113 110 107 106 107 106 104 104 104 103 99 95 94 97 100 103 106 107 107 107 105 102 100 97 92 88 83 76 69 62 53 47 45 42 40 34 27 23 24 25 26 29 32 35 41 44 43 43 44 41 35 34 36 36 35 34 34 35 34 33 32 30 29 28 27 27 27 27 27 27 27 24 19
124 120 119 121 119 114 113 113 114 115 118 120 119 118 118 117 114 112 109 105 103 104 104 101 98 97 99 103 106 107 108 109 109 108 106 101 96 92 86 83 81 77 71 64 55 48 46 43 41 36 31 29 31 30 29 31 33 34 37 42 44 44 43 41 39 39 38 37 36 34 33 32 32 32 32 29 28 28 27 27 27 27 26 27 29 26 21
131 127 127 129 127 123 122 123 124 124 125 123 120 118 116 116 114 112 112 112 111 109 107 104 104 107 109 110 111 112 113 113 111 109 107 103 99 95 90 87 84 79 73 66 59 52 49 46 43 40 37 35 35 33 32 34 35 34 35 37 38 40 39 36 35 35 35 35 36 35 33 33 33 33 33 31 30 30 29 28 28 27 26 27 28 26 23
137 136 136 138 138 136 134 133 132 131 128 124 121 117 114 113 113 114 117 118 115 111 110 112 114 116 115 116 117 120 121 119 116 114 113 111 107 102 98 94 91 85 78 70 62 55 50 46 45 44 41 39 38 35 32 32 33 33 33 32 31 33 33 31 32 34 35 37 38 38 38 38 36 33 33 33 33 33 32 29 27 27 26 25 24 23 22
135 138 140 141 141 141 142 142 141 140 137 131 122 116 113 114 115 115 115 116 115 115 117 119 119 120 121 123 126 127 125 121 119 121 122 120 117 116 115 112 105 95 83 72 64 59 54 51 55 59 52 43 41 39 35 32 30 28 28 28 28 30 32 32 34 37 38 39 42 41 40 41 39 35 34 35 33 32 33 30 26 25 26 24 20 19 20
146 149 150 147 146 146 146 146 146 144 138 129 122 118 117 118 118 117 117 117 119 122 124 124 125 126 128 130 130 127 124 123 125 129 130 130 129 129 124 116 109 101 90 76 66 63 57 53 60 68 62 49 45 43 39 35 28 21 21 26 28 31 34 36 38 41 41 41 42 42 40 41 42 38 36 36 34 31 29 28 25 25 25 23 19 16 16
155 159 157 151 147 143 139 138 140 135 128 123 121 122 121 120 119 120 120 122 126 128 130 132 133 132 131 129 128 126 127 129 133 135 135 134 134 132 125 119 110 97 85 73 68 71 66 58 62 67 62 51 47 40 36 38 37 22 19 27 30 31 37 39 39 42 43 41 40 40 36 36 39 38 36 36 35 32 27 25 22 21 22 22 20 17 16
140 145 146 145 142 135 128 129 133 129 124 121 122 123 124 124 124 125 126 128 131 135 137 138 136 133 132 132 131 130 132 136 138 139 140 141 143 147 135 85 44 49 66 74 75 76 69 63 65 64 50 49 53 35 26 37 45 30 22 31 33 30 38 44 43 43 43 38 37 39 37 34 35 35 34 34 33 30 27 23 18 17 18 19 18 18 16
130 130 133 135 134 129 126 128 130 127 126 126 127 126 127 128 130 131 132 133 137 143 143 139 137 138 141 142 140 138 142 146 147 149 151 152 155 154 109 77 68 69 82 91 92 82 70 69 73 67 44 45 50 29 22 36 48 32 19 32 37 31 34 42 41 42 43 38 33 35 36 36 34 31 30 29 27 25 24 22 16 14 16 16 15 17 16
135 133 134 133 132 130 129 130 130 130 131 132 133 133 136 137 137 137 138 140 146 151 147 143 145 149 150 151 151 150 154 160 163 165 167 166 171 188 163 123 120 116 104 103 102 78 70 73 68 49 42 42 36 23 23 34 42 33 19 26 34 37 37 36 34 35 37 34 30 30 32 34 32 28 24 24 22 20 19 18 14 12 13 13 12 13 12
139 137 136 134 133 133 133 133 133 134 137 137 137 139 141 142 142 142 144 147 154 160 155 150 151 151 153 159 161 157 164 175 178 181 188 191 208 259 276 139 137 149 153 142 146 97 67 82 71 20 40 40 23 23 32 25 18 22 26 26 29 36 37 33 31 31 30 27 26 27 25 24 25 23 19 17 18 17 14 12 11 10 8 8 8 7 6
144 140 138 138 137 138 138 139 140 141 143 143 143 145 146 146 146 148 150 153 160 166 162 154 148 143 149 161 167 168 178 188 190 194 207 217 251 301 323 78 135 174 209 174 156 165 108 116 129 49 58 39 8 31 54 42 356 2 25 30 31 34 32 29 28 28 26 25 25 24 21 17 17 18 14 10 12 14 10 6 6 6 4 4 4 2 0
147 145 144 143 142 143 144 147 148 148 147 148 150 152 153 153 152 153 155 160 167 172 169 164 167 173 175 180 188 189 192 199 203 208 218 224 238 282 318 44 155 211 221 183 171 204 210 161 178 279 55 79 28 50 61 40 335 349 22 28 30 35 31 27 25 22 22 22 21 21 20 16 11 11 10 6 6 8 6 2 1 1 360 360 360 358 356
151 151 150 148 147 148 151 153 155 155 156 157 158 160 163 165 164 164 166 169 173 179 180 175 180 189 193 199 209 210 207 210 216 220 233 252 251 231 212 210 235 238 223 194 195 220 211 177 218 261 286 64 74 76 75 340 311 334 353 332 10 33 22 22 26 23 20 19 15 12 12 9 4 5 7 3 359 2 3 359 356 355 355 356 355 354 351
156 155 152 149 151 155 157 158 162 163 162 161 163 168 173 177 177 178 181 181 180 184 191 191 192 199 202 205 215 228 236 238 234 236 259 288 300 290 161 187 230 238 227 209 202 210 209 210 232 252 253 110 101 99 109 280 291 293 252 247 262 357 348 7 19 14 10 10 8 3 2 359 356 359 2 357 352 354 356 353 348 348 351 352 350 347 346
156 152 150 151 156 160 160 160 163 164 163 164 169 176 183 187 188 189 193 194 190 189 195 198 200 204 207 206 215 228 238 239 239 248 269 291 310 325 286 242 236 230 224 212 199 207 222 229 235 240 212 146 130 144 258 267 263 247 234 237 249 275 304 348 1 357 358 3 359 352 352 351 347 348 350 347 342 343 346 343 341 344 347 346 342 338 337
154 152 154 157 160 160 158 159 162 165 168 172 176 180 187 194 197 196 197 200 198 195 196 198 198 200 205 214 226 238 250 262 264 257 251 254 260 264 267 268 257 238 221 206 197 210 228 232 223 219 202 159 155 217 260 262 252 249 248 243 249 263 281 304 317 324 338 346 337 325 324 329 332 336 338 336 335 337 339 336 337 341 344 341 336 333 332
156 157 160 162 162 162 163 167 170 173 176 181 183 182 185 193 199 199 199 200 198 197 196 196 195 196 202 216 230 239 260 288 299 300 272 248 249 243 245 260 260 240 216 203 203 214 227 231 223 216 201 177 189 235 256 257 251 254 254 249 258 270 281 292 307 317 321 321 317 313 313 318 324 330 332 330 328 330 332 332 331 335 339 337 332 329 329
159 159 160 161 164 168 172 175 177 177 179 183 184 181 180 187 195 200 201 200 199 198 196 194 195 198 203 212 225 230 234 258 287 303 307 287 267 239 231 257 262 238 208 198 206 216 221 224 223 215 202 201 224 246 254 249 246 250 252 251 258 268 273 280 298 311 311 306 304 306 308 311 316 321 323 324 322 323 326 326 322 325 331 333 328 323 324
159 159 162 166 170 173 177 179 179 178 178 180 180 177 180 190 198 201 200 198 199 200 197 193 194 198 202 206 215 223 226 236 255 267 272 274 257 221 224 258 260 230 201 192 201 212 219 226 227 219 210 217 233 244 247 242 239 240 241 245 249 254 262 275 291 302 301 295 295 298 299 299 303 307 309 312 314 315 319 318 314 315 322 325 321 317 320
163 167 170 173 175 178 180 181 180 177 177 179 179 181 188 199 204 200 194 194 197 198 199 198 197 199 202 205 211 220 227 236 247 250 247 243 229 221 236 253 246 223 207 201 203 208 211 214 216 215 214 221 232 236 232 233 237 236 235 237 241 246 258 273 285 290 289 287 290 292 290 290 295 299 301 303 307 310 312 312 310 310 313 314 313 313 315
169 172 173 174 177 180 182 182 181 181 183 186 189 191 197 205 206 195 187 190 197 202 203 203 199 195 198 209 215 214 215 222 229 226 218 216 232 248 253 248 231 215 209 209 214 217 212 208 209 211 213 220 234 237 230 227 232 235 233 232 235 242 254 265 271 276 281 286 288 288 285 285 289 294 297 300 303 305 307 307 308 308 308 307 308 309 310